timestamp,wind_dir_avg,wind_spd_avg,wind_spd_max_dir,wind_spd_gust,battery_voltage,lat,long
2022-01-22 00:04:00+00:00,16.0,8.3,23.0,10.5,12.41,47.59359,-54.27349
2022-01-22 00:14:00+00:00,21.0,7.95,32.0,9.9,12.33,47.59359,-54.27349
2022-01-22 00:24:00+00:00,13.0,8.01,33.0,9.9,12.33,47.59359,-54.27349
2022-01-22 00:34:00+00:00,13.0,8.86,13.0,10.61,12.33,47.59359,-54.27349
2022-01-22 00:44:00+00:00,21.0,8.38,22.0,9.95,12.33,47.59359,-54.27349
2022-01-22 00:54:00+00:00,6.0,8.21,32.0,9.5,12.33,47.59359,-54.27349
2022-01-22 01:04:00+00:00,17.0,8.64,25.0,9.98,12.33,47.59359,-54.27349
2022-01-22 01:14:01+00:00,6.0,7.58,6.0,8.55,12.33,47.59359,-54.27349
2022-01-22 01:24:01+00:00,8.0,7.76,3.0,9.05,12.33,47.59359,-54.27349
2022-01-22 01:34:01+00:00,0.0,8.78,0.0,10.06,12.33,47.59359,-54.27349
2022-01-22 01:44:01+00:00,351.0,8.27,353.0,9.5,12.33,47.59359,-54.27349
2022-01-22 01:54:01+00:00,347.0,8.56,351.0,10.1,12.33,47.59359,-54.27349
2022-01-22 02:04:01+00:00,346.0,8.41,342.0,10.04,12.33,47.59359,-54.27349
2022-01-22 02:14:01+00:00,343.0,9.73,345.0,10.57,12.33,47.59359,-54.27349
2022-01-22 02:24:01+00:00,338.0,8.64,325.0,10.28,12.33,47.59359,-54.27349
2022-01-22 02:34:01+00:00,348.0,7.85,0.0,9.32,12.33,47.59359,-54.27349
2022-01-22 02:44:01+00:00,355.0,7.11,353.0,8.43,12.33,47.59359,-54.27349
2022-01-22 02:54:01+00:00,356.0,7.41,339.0,9.86,12.33,47.59359,-54.27349
2022-01-22 03:04:01+00:00,349.0,8.66,334.0,10.52,12.33,47.59359,-54.27349
2022-01-22 03:14:00+00:00,337.0,7.57,330.0,8.79,12.25,47.59359,-54.27349
2022-01-22 03:24:00+00:00,353.0,7.37,333.0,10.63,12.25,47.59359,-54.27349
2022-01-22 03:34:00+00:00,359.0,7.76,339.0,9.39,12.25,47.59359,-54.27349
2022-01-22 03:44:00+00:00,338.0,7.02,322.0,10.44,12.25,47.59359,-54.27349
2022-01-22 03:54:00+00:00,4.0,7.19,12.0,8.84,12.25,47.59359,-54.27349
2022-01-22 04:04:00+00:00,353.0,7.8,343.0,8.93,12.25,47.59359,-54.27349
2022-01-22 04:14:00+00:00,339.0,9.27,325.0,11.23,12.17,47.59359,-54.27349
2022-01-22 04:24:00+00:00,334.0,9.95,312.0,11.71,12.17,47.59359,-54.27349
2022-01-22 04:34:00+00:00,336.0,10.06,320.0,14.17,12.17,47.59359,-54.27349
2022-01-22 04:44:00+00:00,330.0,11.36,321.0,13.75,12.17,47.59359,-54.27349
2022-01-22 04:54:00+00:00,334.0,9.72,322.0,11.07,12.17,47.59359,-54.27349
2022-01-22 05:04:00+00:00,352.0,7.21,341.0,8.58,12.17,47.59359,-54.27349
2022-01-22 05:14:01+00:00,353.0,8.61,347.0,9.97,12.17,47.59359,-54.27349
2022-01-22 05:24:01+00:00,346.0,8.94,342.0,10.82,12.17,47.59359,-54.27349
2022-01-22 05:34:01+00:00,344.0,9.6,343.0,10.67,12.17,47.59359,-54.27349
2022-01-22 05:44:01+00:00,348.0,9.81,344.0,11.88,12.17,47.59359,-54.27349
2022-01-22 05:54:01+00:00,354.0,9.43,356.0,11.12,12.17,47.59359,-54.27349
2022-01-22 06:04:01+00:00,355.0,10.9,4.0,12.65,12.17,47.59359,-54.27349
2022-01-22 06:14:00+00:00,352.0,9.97,349.0,11.54,12.17,47.59359,-54.27349
2022-01-22 06:24:00+00:00,355.0,10.57,342.0,12.09,12.17,47.59359,-54.27349
2022-01-22 06:34:00+00:00,353.0,10.89,343.0,13.53,12.17,47.59359,-54.27349
2022-01-22 06:44:00+00:00,3.0,10.02,7.0,11.58,12.17,47.59359,-54.27349
2022-01-22 06:54:00+00:00,356.0,10.23,351.0,11.76,12.17,47.59359,-54.27349
2022-01-22 07:04:00+00:00,354.0,9.36,0.0,11.02,12.17,47.59359,-54.27349
2022-01-22 07:14:00+00:00,0.0,10.1,353.0,11.9,12.09,47.59359,-54.27349
2022-01-22 07:24:00+00:00,355.0,8.51,352.0,10.08,12.09,47.59359,-54.27349
2022-01-22 07:34:00+00:00,0.0,6.96,12.0,9.72,12.09,47.59359,-54.27349
2022-01-22 07:44:00+00:00,0.0,7.21,6.0,8.82,12.09,47.59359,-54.27349
2022-01-22 07:54:00+00:00,354.0,6.76,346.0,9.66,12.09,47.59359,-54.27349
2022-01-22 08:04:00+00:00,348.0,7.07,342.0,9.36,12.09,47.59359,-54.27349
2022-01-22 08:14:00+00:00,5.0,6.66,17.0,8.98,12.09,47.59359,-54.27349
2022-01-22 08:24:00+00:00,357.0,6.11,342.0,7.26,12.09,47.59359,-54.27349
2022-01-22 08:34:00+00:00,0.0,7.57,351.0,8.92,12.09,47.59359,-54.27349
2022-01-22 08:44:00+00:00,357.0,8.48,1.0,9.83,12.09,47.59359,-54.27349
2022-01-22 08:54:00+00:00,353.0,6.95,354.0,8.8,12.09,47.59359,-54.27349
2022-01-22 09:04:00+00:00,353.0,5.89,346.0,7.69,12.09,47.59359,-54.27349
2022-01-22 09:14:01+00:00,359.0,7.8,19.0,9.49,12.09,47.59359,-54.27349
2022-01-22 09:24:01+00:00,357.0,8.47,347.0,9.58,12.09,47.59359,-54.27349
2022-01-22 09:34:01+00:00,350.0,6.22,344.0,7.14,12.09,47.59359,-54.27349
2022-01-22 09:44:01+00:00,345.0,5.94,341.0,7.34,12.09,47.59359,-54.27349
2022-01-22 09:54:01+00:00,359.0,4.66,345.0,5.38,12.09,47.59359,-54.27349
2022-01-22 10:04:01+00:00,346.0,4.41,338.0,5.9,12.09,47.59359,-54.27349
2022-01-22 10:14:00+00:00,334.0,5.1,339.0,6.02,12.01,47.59359,-54.27349
2022-01-22 10:24:00+00:00,342.0,5.41,338.0,6.35,12.01,47.59359,-54.27349
2022-01-22 10:34:00+00:00,346.0,5.18,346.0,6.47,12.01,47.59359,-54.27349
2022-01-22 10:44:00+00:00,328.0,4.75,328.0,5.91,12.01,47.59359,-54.27349
2022-01-22 10:54:00+00:00,330.0,4.8,326.0,6.33,12.01,47.59359,-54.27349
2022-01-22 11:04:00+00:00,334.0,4.49,330.0,5.35,12.01,47.59359,-54.27349
2022-01-22 11:14:00+00:00,329.0,4.59,337.0,5.43,11.93,47.59359,-54.27349
2022-01-22 11:24:00+00:00,352.0,4.68,353.0,5.75,11.93,47.59359,-54.27349
2022-01-22 11:34:00+00:00,354.0,5.14,342.0,5.88,11.93,47.59359,-54.27349
2022-01-22 11:44:00+00:00,357.0,5.44,6.0,6.19,11.93,47.59359,-54.27349
2022-01-22 11:54:00+00:00,4.0,5.03,336.0,6.13,11.93,47.59359,-54.27349
2022-01-22 12:04:00+00:00,355.0,4.05,339.0,5.02,11.93,47.59359,-54.27349
2022-01-22 12:14:01+00:00,356.0,4.96,0.0,5.84,14.4,47.59359,-54.27349
2022-01-22 12:24:01+00:00,342.0,4.56,340.0,6.09,14.4,47.59359,-54.27349
2022-01-22 12:34:01+00:00,10.0,4.99,341.0,5.84,14.4,47.59359,-54.27349
2022-01-22 12:44:01+00:00,359.0,5.45,1.0,7.07,14.4,47.59359,-54.27349
2022-01-22 12:54:01+00:00,342.0,2.9,327.0,4.01,14.4,47.59359,-54.27349
2022-01-22 13:04:01+00:00,336.0,2.14,316.0,3.43,14.4,47.59359,-54.27349
2022-01-22 13:14:01+00:00,357.0,3.26,30.0,4.04,14.16,47.59359,-54.27349
2022-01-22 13:24:01+00:00,352.0,3.49,354.0,4.86,14.16,47.59359,-54.27349
2022-01-22 13:34:01+00:00,18.0,1.91,312.0,3.53,14.16,47.59359,-54.27349
2022-01-22 13:44:01+00:00,48.0,1.87,49.0,2.68,14.16,47.59359,-54.27349
2022-01-22 13:54:01+00:00,322.0,0.75,50.0,1.73,14.16,47.59359,-54.27349
2022-01-22 14:04:01+00:00,34.0,1.88,31.0,3.43,14.16,47.59359,-54.27349
2022-01-22 14:14:00+00:00,344.0,4.28,334.0,5.38,14.48,47.59359,-54.27349
2022-01-22 14:24:00+00:00,357.0,4.16,28.0,5.15,14.48,47.59359,-54.27349
2022-01-22 14:34:00+00:00,346.0,4.31,331.0,5.15,14.48,47.59359,-54.27349
2022-01-22 14:44:00+00:00,5.0,3.72,20.0,4.51,14.48,47.59359,-54.27349
2022-01-22 14:54:00+00:00,350.0,4.58,333.0,5.61,14.48,47.59359,-54.27349
2022-01-22 15:04:00+00:00,4.0,4.09,18.0,5.31,14.48,47.59359,-54.27349
2022-01-22 15:14:00+00:00,23.0,2.42,42.0,3.31,13.68,47.59359,-54.27349
2022-01-22 15:24:00+00:00,3.0,2.46,354.0,3.08,13.68,47.59359,-54.27349
2022-01-22 15:34:00+00:00,359.0,3.99,355.0,4.59,13.68,47.59359,-54.27349
2022-01-22 15:44:00+00:00,37.0,1.27,42.0,1.77,13.68,47.59359,-54.27349
2022-01-22 15:54:00+00:00,356.0,3.21,344.0,4.26,13.68,47.59359,-54.27349
2022-01-22 16:04:00+00:00,330.0,1.14,331.0,1.45,13.68,47.59359,-54.27349
2022-01-22 16:14:01+00:00,314.0,0.95,295.0,1.66,13.6,47.59359,-54.27349
2022-01-22 16:24:01+00:00,207.0,1.16,218.0,1.68,13.6,47.59359,-54.27349
2022-01-22 16:34:01+00:00,327.0,1.03,327.0,1.3,13.6,47.59359,-54.27349
2022-01-22 16:44:01+00:00,337.0,0.86,353.0,1.2,13.6,47.59359,-54.27349
2022-01-22 16:54:01+00:00,154.0,1.44,160.0,1.87,13.6,47.59359,-54.27349
2022-01-22 17:04:01+00:00,180.0,1.67,179.0,2.15,13.6,47.59359,-54.27349
2022-01-22 17:14:00+00:00,201.0,1.45,205.0,1.89,14.32,47.59359,-54.27349
2022-01-22 17:24:00+00:00,198.0,1.97,175.0,4.11,14.32,47.59359,-54.27349
2022-01-22 17:34:00+00:00,201.0,2.48,198.0,3.38,14.32,47.59359,-54.27349
2022-01-22 17:44:00+00:00,210.0,1.85,211.0,2.47,14.32,47.59359,-54.27349
2022-01-22 17:54:00+00:00,219.0,1.93,217.0,2.47,14.32,47.59359,-54.27349
2022-01-22 18:04:00+00:00,161.0,1.82,167.0,2.34,14.32,47.59359,-54.27349
2022-01-22 18:14:01+00:00,153.0,1.65,163.0,2.33,13.76,47.59359,-54.27349
2022-01-22 18:24:01+00:00,137.0,0.51,150.0,1.18,13.76,47.59359,-54.27349
2022-01-22 18:34:01+00:00,173.0,0.71,173.0,0.94,13.76,47.59359,-54.27349
2022-01-22 18:44:01+00:00,108.0,2.26,99.0,5.34,13.76,47.59359,-54.27349
2022-01-22 18:54:01+00:00,75.0,2.97,81.0,5.27,13.76,47.59359,-54.27349
2022-01-22 19:04:01+00:00,53.0,0.15,28.0,0.53,13.76,47.59359,-54.27349
2022-01-22 19:14:00+00:00,87.0,4.51,92.0,5.45,13.68,47.59359,-54.27349
2022-01-22 19:24:00+00:00,83.0,5.37,89.0,5.97,13.68,47.59359,-54.27349
2022-01-22 19:34:00+00:00,96.0,5.28,100.0,5.79,13.68,47.59359,-54.27349
2022-01-22 19:44:00+00:00,89.0,3.29,96.0,5.38,13.68,47.59359,-54.27349
2022-01-22 19:54:00+00:00,6.0,0.49,351.0,0.81,13.68,47.59359,-54.27349
2022-01-22 20:04:00+00:00,85.0,5.02,86.0,5.41,13.68,47.59359,-54.27349
2022-01-22 20:14:01+00:00,144.0,0.3,173.0,0.66,12.81,47.59359,-54.27349
2022-01-22 20:24:01+00:00,89.0,5.09,89.0,5.32,12.81,47.59359,-54.27349
2022-01-22 20:34:01+00:00,86.0,1.86,90.0,5.02,12.81,47.59359,-54.27349
2022-01-22 20:44:01+00:00,93.0,5.38,97.0,6.2,12.81,47.59359,-54.27349
2022-01-22 20:54:01+00:00,112.0,6.1,118.0,6.68,12.81,47.59359,-54.27349
2022-01-22 21:04:01+00:00,105.0,5.31,107.0,6.32,12.81,47.59359,-54.27349
2022-01-22 21:14:01+00:00,98.0,5.86,92.0,7.03,12.57,47.59359,-54.27349
2022-01-22 21:24:01+00:00,101.0,5.68,106.0,6.78,12.57,47.59359,-54.27349
2022-01-22 21:34:01+00:00,98.0,5.51,104.0,6.62,12.57,47.59359,-54.27349
2022-01-22 21:44:01+00:00,93.0,5.65,92.0,6.48,12.57,47.59359,-54.27349
2022-01-22 21:54:01+00:00,88.0,5.2,90.0,5.87,12.57,47.59359,-54.27349
2022-01-22 22:04:01+00:00,104.0,6.18,110.0,6.99,12.57,47.59359,-54.27349
2022-01-22 22:14:01+00:00,101.0,5.63,99.0,6.24,12.57,47.59359,-54.27349
2022-01-22 22:24:01+00:00,110.0,6.26,115.0,6.89,12.57,47.59359,-54.27349
2022-01-22 22:34:01+00:00,129.0,6.51,125.0,7.97,12.57,47.59359,-54.27349
2022-01-22 22:44:01+00:00,133.0,6.93,133.0,8.68,12.57,47.59359,-54.27349
2022-01-22 22:54:01+00:00,131.0,6.3,125.0,7.39,12.57,47.59359,-54.27349
2022-01-22 23:04:01+00:00,128.0,5.2,122.0,7.0,12.57,47.59359,-54.27349
2022-01-22 23:14:00+00:00,120.0,5.14,121.0,6.38,12.49,47.59359,-54.27349
2022-01-22 23:24:00+00:00,113.0,4.74,100.0,6.75,12.49,47.59359,-54.27349
2022-01-22 23:34:00+00:00,108.0,5.1,107.0,6.67,12.49,47.59359,-54.27349
2022-01-22 23:44:00+00:00,114.0,4.33,95.0,5.99,12.49,47.59359,-54.27349
2022-01-22 23:54:00+00:00,108.0,4.29,107.0,6.43,12.49,47.59359,-54.27349
